Location: Unspecified
(55.7024°N, 37.6611°E)
Time: 18:00:47
(UTC+03:00)

Transit 2A - All Passes

Search period start: 23 June 2025 00:00
Search period end: 03 July 2025 00:00
Orbit: 599 x 947 km, 66.7° (Epoch: 22 June)

Date Brightness Start Highest point End Pass type
(mag) Time Alt. Az. Time Alt. Az. Time Alt. Az.
23 Jun - 01:36:56 10° W 01:40:55 34° NNW 01:45:00 10° NE visible
23 Jun - 03:21:48 10° NW 03:25:08 20° N 03:28:34 10° NE daylight
23 Jun - 05:05:37 10° NW 05:09:29 27° NNE 05:13:33 10° E daylight
23 Jun - 06:48:31 10° NW 06:53:06 77° NE 06:58:05 10° SE daylight
23 Jun - 08:31:59 10° WNW 08:35:46 24° WSW 08:39:47 10° S daylight
23 Jun - 23:17:32 10° SSW 23:21:41 44° ESE 23:25:51 10° NE visible
24 Jun - 01:00:35 10° WSW 01:04:43 42° NW 01:08:58 10° NE visible
24 Jun - 02:45:24 10° WNW 02:48:47 21° N 02:52:18 10° NE visible
24 Jun - 04:29:31 10° NW 04:33:11 24° NNE 04:37:03 10° ENE daylight
24 Jun - 06:12:30 10° NW 06:17:01 59° NE 06:21:54 10° ESE daylight
24 Jun - 07:55:41 10° NW 07:59:53 33° WSW 08:04:24 10° S daylight
24 Jun - 22:41:56 10° S 22:45:47 31° ESE 22:49:38 10° ENE visible
25 Jun - 00:24:18 10° WSW 00:28:34 55° NW 00:32:56 10° NE visible
25 Jun - 02:08:56 10° WNW 02:12:28 23° NNW 02:16:05 10° NE visible
25 Jun - 03:53:21 10° NW 03:56:52 22° NNE 04:00:33 10° ENE daylight
25 Jun - 05:36:29 10° NW 05:40:52 46° NE 05:45:37 10° ESE daylight
25 Jun - 07:19:30 10° NW 07:23:57 46° SW 07:28:47 10° SSE daylight
25 Jun - 22:06:35 10° SSE 22:09:56 22° ESE 22:13:17 10° ENE daylight
25 Jun - 23:48:08 10° SW 23:52:28 74° NW 23:56:54 10° NE visible
26 Jun - 01:32:29 10° WNW 01:36:09 26° NNW 01:39:57 10° NE visible
26 Jun - 03:17:08 10° NW 03:20:32 21° N 03:24:04 10° NE daylight
26 Jun - 05:00:28 10° NW 05:04:41 37° NNE 05:09:13 10° E daylight
26 Jun - 06:43:23 10° NW 06:47:59 64° SW 06:52:58 10° SSE daylight
26 Jun - 08:27:54 10° W 08:30:15 14° WSW 08:32:41 10° SW daylight
26 Jun - 21:31:36 10° SE 21:34:08 15° ESE 21:36:40 10° ENE daylight
26 Jun - 23:12:05 10° SW 23:16:25 82° SE 23:20:50 10° NE visible
27 Jun - 00:56:02 10° W 00:59:53 30° NNW 01:03:52 10° NE visible
27 Jun - 02:40:50 10° NW 02:44:11 20° N 02:47:40 10° NE visible
27 Jun - 04:24:25 10° NW 04:28:28 31° NNE 04:32:46 10° E daylight
27 Jun - 06:07:19 10° NW 06:11:57 86° SW 06:17:01 10° SE daylight
27 Jun - 07:51:05 10° WNW 07:54:27 19° WSW 07:58:00 10° SSW daylight
27 Jun - 20:57:52 10° ESE 20:58:23 10° ESE 20:58:55 10° E daylight
27 Jun - 22:36:09 10° SSW 22:40:25 58° SE 22:44:45 10° NE visible
28 Jun - 00:19:37 10° W 00:23:39 36° NNW 00:27:48 10° NE visible
28 Jun - 02:04:28 10° NW 02:07:50 21° N 02:11:19 10° NE visible
28 Jun - 03:48:21 10° NW 03:52:12 27° NNE 03:56:16 10° E daylight
28 Jun - 05:31:17 10° NW 05:35:53 72° NE 05:40:54 10° SE daylight
28 Jun - 07:14:39 10° WNW 07:18:36 27° WSW 07:22:50 10° S daylight
28 Jun - 22:00:25 10° SSW 22:04:28 40° ESE 22:08:35 10° NE daylight
28 Jun - 23:43:17 10° WSW 23:47:28 45° NW 23:51:45 10° NE visible
29 Jun - 01:28:03 10° WNW 01:31:30 22° N 01:35:03 10° NE visible
29 Jun - 03:12:14 10° NW 03:15:54 24° NNE 03:19:46 10° ENE daylight
29 Jun - 04:55:15 10° NW 04:59:47 55° NE 05:04:41 10° ESE daylight
29 Jun - 06:38:23 10° NW 06:42:42 37° WSW 06:47:22 10° S daylight
29 Jun - 21:24:51 10° S 21:28:35 28° ESE 21:32:21 10° ENE daylight
29 Jun - 23:07:02 10° WSW 23:11:19 59° NW 23:15:43 10° NE visible
30 Jun - 00:51:36 10° WNW 00:55:10 24° NNW 00:58:52 10° NE visible
30 Jun - 02:36:04 10° NW 02:39:35 22° N 02:43:16 10° ENE visible
30 Jun - 04:19:14 10° NW 04:23:38 44° NE 04:28:22 10° ESE daylight
30 Jun - 06:02:13 10° NW 06:06:45 50° SW 06:11:42 10° SSE daylight
30 Jun - 07:48:12 10° W 07:48:52 10° WSW 07:49:32 10° WSW daylight
30 Jun - 20:49:34 10° SSE 20:52:45 20° ESE 20:55:57 10° ENE daylight
30 Jun - 22:30:53 10° SW 22:35:13 80° NW 22:39:41 10° NE visible
01 Jul - 00:15:08 10° W 00:18:52 27° NNW 00:22:44 10° NE visible
01 Jul - 01:59:49 10° NW 02:03:14 21° N 02:06:48 10° NE visible
01 Jul - 03:43:12 10° NW 03:47:26 36° NNE 03:51:57 10° E daylight
01 Jul - 05:26:07 10° NW 05:30:46 69° SW 05:35:50 10° SSE daylight
01 Jul - 07:10:22 10° WNW 07:13:06 15° WSW 07:15:58 10° SW daylight
01 Jul - 20:14:44 10° SE 20:16:59 14° ESE 20:19:13 10° ENE daylight
01 Jul - 21:54:52 10° SW 21:59:11 75° SE 22:03:36 10° NE daylight
01 Jul - 23:38:41 10° W 23:42:35 31° NNW 23:46:38 10° NE visible
02 Jul - 01:23:30 10° NW 01:26:53 21° N 01:30:24 10° NE visible
02 Jul - 03:07:09 10° NW 03:11:11 30° NNE 03:15:30 10° E daylight
02 Jul - 04:50:03 10° NW 04:54:44 88° NE 04:59:51 10° SE daylight
02 Jul - 06:33:42 10° WNW 06:37:17 21° WSW 06:41:07 10° SSW daylight
02 Jul - 21:18:59 10° SSW 21:23:12 53° SE 21:27:30 10° NE daylight
02 Jul - 23:02:18 10° W 23:06:22 38° NNW 23:10:35 10° NE visible
